[[{"header":{"parameterUnit":"m.s-1","parameterCategory":1,"la1":30.2991,"la2":30.254,"lo1":-89.0895,"lo2":-89.0444,"dy":0.0017,"dx":0.0017,"nx":28,"ny":28,"refTime":"2024-08-15T03:00:00:Z","depth":0,"parameterNumber":2,"parameterNumberName":"U-component_of_WINDS"},"data":[0,0,0,0,0,0,0,0,0,0,0,0,0,0,0,0,0,0,0,0,0,0,0,0,0,0,0,0,0,0,0,0,0,0,0,0,0,0,0,0,0,0,0,0,0,0,0,0,0,0,0,0,0,0,0,0,0,0,0.4191,0.4191,0,0.4171,0.4171,0.417,0.415,0.415,0.4149,0.4149,0.4127,0.4127,0.4127,0,0,0,0,0,0,0,0,0,0,0,0,0,0.421,0.421,0.4191,0.4191,0.4191,0.4171,0.4171,0.417,0.415,0.415,0.4149,0.4149,0.4128,0.4127,0.4127,0,0,0,0,0,0,0,0,0,0,0,0,0,0.4197,0.421,0.4191,0.4178,0.4177,0.4171,0.4171,0.417,0.415,0.415,0.4149,0.4149,0.4128,0.4127,0.4127,0.4132,0,0,0.4125,0.4125,0,0,0,0,0,0,0,0,0.4198,0.4196,0.418,0.4179,0.4177,0.4163,0.4169,0.4157,0.415,0.416,0.4149,0.4149,0.4139,0.4138,0.4135,0.4131,0.413,0.4125,0.4125,0.4125,0.4125,0,0,0,0,0,0,0,0.4199,0.4197,0.4183,0.418,0.4178,0.4173,0.417,0.4167,0.4152,0.4159,0.4158,0.4156,0.4139,0.4136,0.4134,0.413,0.4125,0.4125,0.4125,0.4124,0.4127,0.4127,0,0,0,0,0,0,0.4202,0.4198,0.4184,0.4183,0.4187,0.4173,0.417,0.4168,0.4152,0.415,0.4156,0.4155,0.4137,0.4135,0.4134,0.4137,0.4125,0.4124,0.4124,0.4126,0.4127,0.4127,0,0,0,0,0,0,0.4202,0.4201,0.4185,0.419,0.4187,0.4173,0.417,0.4168,0.4165,0.415,0.4147,0.4156,0.4136,0.4134,0.4132,0.4136,0.4124,0.4124,0.4126,0.4126,0.4127,0.4146,0,0,0,0,0,0,0.4203,0.4201,0.4204,0.419,0.4187,0.4184,0.4171,0.4167,0.4164,0.4162,0.4149,0.4146,0.4136,0.4133,0.4132,0.4135,0.4123,0.4125,0.4126,0.4127,0.4145,0.4147,0.4149,0,0,0,0,0,0.4204,0.421,0.4204,0.4202,0.419,0.4185,0.4183,0.4171,0.4164,0.4166,0.4156,0.4147,0.4136,0.4133,0.4131,0.4135,0.4125,0.4126,0.4127,0.4144,0.4146,0.4149,0,0,0,0,0,0,0.4224,0.4208,0.4201,0.4203,0.4195,0.4181,0.4183,0.4174,0.4168,0.4167,0.4152,0.4149,0.4148,0.4141,0.4138,0.4138,0.4129,0.413,0.4143,0.4145,0.4147,0.4148,0.4123,0,0,0,0,0,0.4229,0.4227,0.4212,0.4215,0.4212,0.4198,0.4196,0.4187,0.4178,0.4175,0.4165,0.4156,0.4151,0.4147,0.4142,0.4143,0.4139,0.4145,0.4147,0.4149,0.4149,0.4148,0.4149,0.413,0.413,0.413,0,0,0.4239,0.423,0.4229,0.4219,0.4212,0.4209,0.4196,0.4193,0.4191,0.4174,0.4171,0.4164,0.4153,0.4152,0.4151,0.4147,0.4154,0.415,0.4151,0.4151,0.4149,0.415,0.4152,0.413,0.413,0.413,0,0,0.4256,0.4249,0.425,0.4243,0.4232,0.4223,0.4223,0.421,0.4204,0.4201,0.4188,0.4184,0.4175,0.4168,0.4163,0.4174,0.4164,0.4173,0.4183,0.4182,0.4183,0.4185,0.4188,0.4189,0.4173,0.4173,0.4173,0,0.4269,0.4265,0.4252,0.425,0.4245,0.423,0.423,0.4224,0.4212,0.4208,0.4203,0.4191,0.4182,0.4179,0.4181,0.4178,0.4177,0.4174,0.4184,0.4185,0.4186,0.4189,0.419,0.4174,0.4174,0.4174,0.4174,0,0.4281,0.4278,0.428,0.4268,0.4264,0.4263,0.4249,0.4246,0.4237,0.4228,0.4224,0.4214,0.4205,0.4203,0.4195,0.4198,0.4195,0.4187,0.4178,0.419,0.4192,0.4193,0.4176,0.4175,0.4175,0.4175,0,0,0.4311,0.4291,0.4292,0.4286,0.4272,0.4269,0.4267,0.4258,0.4255,0.4247,0.4244,0.4236,0.4228,0.4222,0.4213,0.4212,0.4219,0.4204,0.4203,0.4206,0.422,0.4226,0.4227,0.4213,0.4213,0.4213,0.4221,0,0.4324,0.4319,0.4307,0.4306,0.4302,0.4287,0.4284,0.4275,0.4266,0.4261,0.425,0.4245,0.4236,0.4232,0.423,0.4219,0.4222,0.4218,0.4209,0.4209,0.4212,0.4229,0.4235,0.4243,0.4222,0.4222,0.4222,0,0.4339,0.4331,0.433,0.4315,0.4313,0.4311,0.4301,0.4297,0.4285,0.4279,0.4271,0.426,0.4256,0.4247,0.424,0.4238,0.4233,0.4227,0.4227,0.4225,0.4216,0.4226,0.4245,0.4246,0.4223,0.4223,0.4223,0,0.4359,0.4349,0.4346,0.4341,0.4324,0.4323,0.4316,0.4304,0.4299,0.429,0.4286,0.4277,0.4272,0.4264,0.425,0.4246,0.4244,0.4235,0.4237,0.4238,0.4238,0.4238,0.4255,0.4236,0.4236,0.4236,0.4236,0,0.4375,0.4374,0.4355,0.4353,0.4351,0.4336,0.4335,0.4326,0.4315,0.4311,0.4297,0.4293,0.4275,0.4269,0.4258,0.4253,0.4251,0.4244,0.4241,0.4245,0.4246,0.4242,0.424,0.4236,0.4236,0.4236,0.4236,0,0.4397,0.4384,0.438,0.4364,0.4359,0.4359,0.4344,0.4342,0.4331,0.4326,0.4323,0.4307,0.4298,0.4284,0.4271,0.4264,0.426,0.4256,0.4264,0.4262,0.4265,0.4265,0.428,0.428,0.4262,0.4262,0.4262,0,0.4408,0.4407,0.439,0.4386,0.4379,0.4373,0.4368,0.4353,0.4347,0.4333,0.4332,0.4322,0.4314,0.43,0.4287,0.4277,0.4271,0.4277,0.4269,0.4273,0.427,0.427,0.4269,0.4279,0.4279,0.4279,0.4279,0,0.4427,0.4421,0.4414,0.4404,0.4398,0.4389,0.438,0.4377,0.436,0.4354,0.4346,0.4339,0.4325,0.4315,0.4303,0.4294,0.4283,0.4282,0.4282,0.4285,0.429,0.4286,0.4268,0.4281,0.4281,0.4281,0.4281,0.4281,0.4443,0.4441,0.4429,0.4421,0.4412,0.4404,0.44,0.4389,0.4381,0.4369,0.436,0.4352,0.4339,0.4321,0.4312,0.4305,0.43,0.43,0.43,0.43,0.4301,0.4292,0.4302,0.4302,0.4302,0.4302,0.4302,0,0.4461,0.4452,0.4445,0.4433,0.4426,0.4417,0.4406,0.4401,0.4393,0.4382,0.4374,0.4362,0.4352,0.4338,0.4326,0.4322,0.4317,0.432,0.432,0.4317,0.4307,0.4307,0.4324,0.4324,0.4324,0.4324,0.4324,0.4324,0.447,0.4466,0.4457,0.4448,0.4438,0.443,0.4424,0.4416,0.4406,0.4395,0.4386,0.4377,0.4364,0.4351,0.4341,0.4336,0.4332,0.4336,0.4331,0.4321,0.4318,0.4317,0.4317,0.4336,0.4336,0.4342,0.4342,0.4342]},{"header":{"parameterUnit":"m.s-1","parameterCategory":1,"la1":30.2991,"la2":30.254,"lo1":-89.0895,"lo2":-89.0444,"dy":0.0017,"dx":0.0017,"nx":28,"ny":28,"refTime":"2024-08-15T03:00:00:Z","depth":0,"parameterNumber":3,"parameterNumberName":"V-component_of_WINDS"},"data":[0,0,0,0,0,0,0,0,0,0,0,0,0,0,0,0,0,0,0,0,0,0,0,0,0,0,0,0,0,0,0,0,0,0,0,0,0,0,0,0,0,0,0,0,0,0,0,0,0,0,0,0,0,0,0,0,0,0,3.0143,3.0143,0,3.0099,3.0098,3.0098,3.009,3.009,3.0091,3.0091,3.004,3.0038,3.0036,0,0,0,0,0,0,0,0,0,0,0,0,0,3.0215,3.0214,3.0143,3.0143,3.0142,3.0099,3.0098,3.0098,3.009,3.009,3.0091,3.0091,3.004,3.0038,3.0036,0,0,0,0,0,0,0,0,0,0,0,0,0,3.0178,3.0213,3.0143,3.0133,3.0132,3.0099,3.0098,3.0098,3.009,3.009,3.0091,3.0092,3.0041,3.0038,3.0036,3.0008,0,0,3.0028,3.0027,0,0,0,0,0,0,0,0,3.018,3.0176,3.0135,3.0134,3.0132,3.0101,3.0105,3.0067,3.009,3.0106,3.0091,3.0092,3.0059,3.0055,3.0045,3.0006,3.0004,3.0028,3.0026,3.0025,3.0024,0,0,0,0,0,0,0,3.0183,3.0177,3.0126,3.0135,3.0133,3.0129,3.0124,3.0098,3.0079,3.0104,3.0104,3.0099,3.0058,3.0048,3.0044,3.0003,3.0028,3.0025,3.0024,3.0023,2.9936,2.9935,0,0,0,0,0,0,3.0188,3.018,3.0127,3.0124,3.0158,3.0127,3.0122,3.011,3.008,3.0076,3.0098,3.0099,3.0052,3.0047,3.0042,3.0006,3.0025,3.0023,3.0021,2.9937,2.9936,2.9935,0,0,0,0,0,0,3.019,3.0184,3.0129,3.0152,3.0145,3.0125,3.0112,3.0109,3.0099,3.0075,3.0071,3.0091,3.0052,3.0046,3.0017,3.0005,3.0021,3.0019,2.9938,2.9937,2.9936,2.9936,0,0,0,0,0,0,3.0192,3.0184,3.0175,3.0152,3.0143,3.0106,3.0111,3.0108,3.0095,3.0095,3.0068,3.0064,3.0052,3.0021,3.0014,3.0001,3.0017,2.9939,2.9937,2.9936,2.9937,2.9935,2.9933,0,0,0,0,0,3.0194,3.0176,3.0175,3.0168,3.0132,3.0105,3.01,3.0089,3.0094,3.0083,3.0068,3.0065,3.0007,3.0018,3.001,2.9996,2.9939,2.9938,2.9936,2.9937,2.9935,2.9933,0,0,0,0,0,0,3.0196,3.0173,3.0171,3.0145,3.0127,3.0104,3.0091,3.0087,3.0067,3.0067,3.0052,3.0046,3.0017,3.0004,3.0016,2.9967,2.9973,2.997,2.9977,2.9974,2.9973,2.9976,3.0015,0,0,0,0,0,3.0194,3.0177,3.0156,3.0135,3.0126,3.011,3.0098,3.0091,3.0072,3.0064,3.0046,3.0026,3.0003,2.9988,2.9966,2.9935,2.9928,2.9922,2.992,2.9918,2.9915,2.9896,2.9892,2.993,2.993,2.993,0,0,3.0188,3.0173,3.0163,3.0135,3.012,3.01,3.0104,3.0083,3.0067,3.006,3.0031,3.0018,2.9994,2.9963,2.9949,2.9951,2.9904,2.9916,2.9915,2.9913,2.9894,2.989,2.9887,2.9929,2.9929,2.9929,0,0,3.0168,3.0156,3.0136,3.0122,3.0101,3.009,3.0085,3.0062,3.0054,3.0026,3.0019,2.9999,2.9961,2.9943,2.993,2.9902,2.9897,2.9895,2.9885,2.9866,2.9863,2.986,2.9848,2.9845,2.9892,2.9892,2.9892,0,3.0163,3.0135,3.0126,3.0105,3.0092,3.0086,3.0065,3.0051,3.0022,3.0012,3.0016,2.9967,2.9951,2.9915,2.9908,2.9898,2.989,2.9897,2.9865,2.9862,2.9859,2.9848,2.9843,2.9892,2.9892,2.9892,2.9892,0,3.0129,3.0109,3.0095,3.007,3.0055,3.0034,3.002,3.0006,3.0,2.9988,2.9958,2.9938,2.9911,2.9903,2.9896,2.9865,2.9867,2.9868,2.9874,2.9855,2.9844,2.984,2.9892,2.9892,2.9892,2.9892,0,0,3.0107,3.0078,3.0073,3.0061,3.0037,3.002,2.9998,2.9974,2.9961,2.9941,2.9921,2.9888,2.9888,2.9873,2.9864,2.9848,2.9825,2.985,2.9849,2.9845,2.9787,2.9786,2.9781,2.9822,2.9821,2.982,2.9789,0,3.0083,3.0045,3.0036,3.0003,2.9983,2.9977,2.9958,2.9939,2.9928,2.9907,2.9894,2.987,2.9873,2.9864,2.9848,2.9831,2.9813,2.9833,2.98,2.9799,2.9805,2.9776,2.9774,2.9745,2.9784,2.9784,2.9783,0,3.0049,3.003,2.9996,2.9974,2.9965,2.9948,2.9924,2.9906,2.9884,2.9876,2.9859,2.9852,2.9825,2.9834,2.9796,2.9811,2.9796,2.9786,2.9784,2.9779,2.9789,2.9768,2.9736,2.9731,2.9777,2.9777,2.9778,0,3.0035,3.0001,2.9976,2.9966,2.994,2.9927,2.9915,2.9895,2.988,2.9858,2.9848,2.9823,2.9809,2.9789,2.9774,2.9782,2.9737,2.9745,2.9728,2.9728,2.9717,2.9718,2.9681,2.9711,2.9711,2.9711,2.9711,0,3.0007,2.9986,2.9969,2.9953,2.9928,2.9917,2.9892,2.9879,2.9861,2.9841,2.9834,2.9814,2.9797,2.9775,2.9763,2.9732,2.9726,2.9718,2.9714,2.9717,2.9718,2.9706,2.9707,2.971,2.971,2.9711,2.9711,0,2.9986,2.9975,2.9946,2.9924,2.9918,2.9901,2.988,2.9864,2.9852,2.9826,2.9819,2.98,2.9773,2.9757,2.9723,2.9715,2.968,2.9679,2.9688,2.9686,2.967,2.9671,2.9622,2.9614,2.9652,2.9652,2.9651,0,2.9969,2.9953,2.9929,2.9916,2.9905,2.9884,2.9869,2.9857,2.9842,2.9816,2.9801,2.9775,2.9752,2.9709,2.9691,2.9664,2.966,2.9645,2.9656,2.9659,2.9657,2.9658,2.9655,2.9643,2.9642,2.9642,2.9642,0,2.9938,2.9933,2.9914,2.9892,2.9875,2.9857,2.9838,2.9827,2.9812,2.9794,2.9768,2.9751,2.9717,2.9689,2.9661,2.9646,2.964,2.9639,2.9633,2.9635,2.9641,2.9635,2.9681,2.964,2.964,2.964,2.964,2.964,2.9917,2.9902,2.9883,2.9861,2.9846,2.9829,2.9812,2.9798,2.9777,2.9749,2.9743,2.9715,2.9691,2.9653,2.9638,2.9613,2.9615,2.9608,2.9605,2.9603,2.9602,2.9646,2.9608,2.9608,2.9608,2.9608,2.9608,0,2.9885,2.9873,2.9853,2.9828,2.981,2.9809,2.9788,2.9772,2.9748,2.9728,2.9707,2.9676,2.9649,2.9628,2.96,2.9585,2.9581,2.9577,2.9577,2.9574,2.9603,2.9609,2.9581,2.9581,2.9581,2.9581,2.9581,2.9581,2.9866,2.9839,2.9832,2.9797,2.9784,2.9758,2.9746,2.9729,2.9713,2.9679,2.9658,2.9645,2.9624,2.9594,2.9569,2.9563,2.9552,2.9549,2.9542,2.9569,2.9572,2.9575,2.9581,2.9547,2.9547,2.9515,2.9515,2.9514]}]]